Regional Weather Roundup
Issued by NWS Austin/San Antonio, TX

Current Version | Previous Version | Text Only | Print | Product List | Glossary On
Versions: 1 2 3 4 5 6 7 8 9 10 11 12 13 14 15 16 17 18 19 20 21 22 23 24 25 26 27 28 29 30 31 32 33 34 35 36 37 38 39 40 41 42 43 44 45 46 47 48 49 50
000
ASUS44 KEWX 180501
RWREWX
SOUTH TEXAS REGIONAL WEATHER ROUNDUP
NATIONAL WEATHER SERVICE AUSTIN/SAN ANTONIO TX
1200 AM CDT FRI JUN 18 2021

NOTE: "FAIR" INDICATED FEW OR NO CLOUDS BELOW 12,000 FEET WITH NO
SIGNIFICANT WEATHER AND/OR OBSTRUCTIONS TO VISIBILITY.

* - THESE STATIONS ARE NOT NWS OR FAA STATIONS...AND ARE NOT SUBJECT
    TO NWS AND FAA QUALITY CONTROL.

TXZ171-172-183>190-180600-
TEXAS HILL COUNTRY AND EDWARDS PLATEAU

CITY           SKY/WX    TMP DP  RH WIND       PRES   REMARKS
JUNCTION       CLEAR     78  64  61 NE3       30.04S
*LLANO         CLEAR     75  66  73 CALM      29.99S
BURNET         CLEAR     79  66  64 SE3       30.03S
*HORSESHOE BAY CLEAR     78  65  64 SE3       30.01S
*LAGO VISTA    CLEAR     80  68  66 E7        30.01F
*KERRVILLE     CLEAR     72  67  84 CALM      30.04S
*FREDERICKSBRG CLEAR     73  62  67 CALM      30.04S
*ROCKSPRINGS     N/A     77  63  61 MISG      30.11S
*BOERNE        CLEAR     73  64  73 CALM      30.02S
*CASTROVILLE   CLEAR     78  69  73 CALM      29.99F
HONDO          CLEAR     77  68  73 S5        29.99S
*UVALDE        CLEAR     77  67  72 SE6       30.01S
DEL RIO        CLEAR     88  62  41 E8        29.97R
*LAUGHLIN AFB  CLEAR     82  62  51 E5        29.98R
*SPOFFORD      NOT AVBL
*EAGLE PASS    CLEAR     81  59  47 SE7       29.97R
CARRIZO SPRGS  PTCLDY    81  66  61 S5        29.96S
$$

TXZ173-191>194-202-209-217>225-228-180600-
CENTRAL AND SOUTH CENTRAL TEXAS

CITY           SKY/WX    TMP DP  RH WIND       PRES   REMARKS
GEORGETOWN     PTCLDY    83  70  64 SE3       30.00F
*TAYLOR        CLEAR     80  71  75 SE3       29.98S
AUSTIN/BERGSTM MOCLDY    81  72  74 SE3       29.96F
AUSTIN/MABRY   PTCLDY    84  69  60 CALM      29.98F
*PFLUGERVILLE    N/A     81  72  74 CALM      29.97S
SAN MARCOS     CLEAR     79  73  82 SE3       29.99R
NEW BRAUNFELS  CLEAR     79  72  79 S6        29.97S
*RANDOLPH AFB  CLEAR     76  71  84 CALM      29.97S
*SEGUIN        NOT AVBL
SAN ANTONIO    PTCLDY    82  69  64 S6        29.98S
STINSON FIELD  CLEAR     82  73  74 CALM      29.96R
*KELLY FIELD   CLEAR     79  70  74 CALM      29.96S
*PLEASANTON    CLEAR     79  72  78 CALM      29.97S
*KENEDY        CLEAR     79  73  81 CALM      29.97S
*LA GRANGE     CLEAR     80  78  94 CALM      29.95S
*GIDDINGS      CLEAR     79  73  80 CALM      29.98S
*GONZALES      CLEAR     80  73  80 CALM      29.97S
$$

TXZ163>164-176>182-195>201-210>213-226-227-235-180600-
SOUTHEAST TEXAS

CITY           SKY/WX    TMP DP  RH WIND       PRES   REMARKS
COLLEGE STN    CLEAR     83  72  69 E6        29.97S
*BRYAN         CLEAR     79  73  82 E3        29.98F
*CALDWELL      CLEAR     79  74  84 CALM      29.98S
*CROCKETT      CLEAR     73  72  94 CALM      29.98S
*BRENHAM       CLEAR     80  74  82 E3        29.97F
HUNTSVILLE     CLEAR     78  70  76 CALM      29.98S
CONROE         CLEAR     73  71  93 CALM      29.98S
HOUSTON BUSH   CLEAR     75  68  78 CALM      29.96F
HOUSTON HOBBY  CLEAR     82  66  58 SE3       29.95F
*HOUSTON SW AP CLEAR     74  69  83 CALM      29.97F
PEARLAND       CLEAR     77  68  73 CALM      29.96F
HOUSTON HOOKS  CLEAR     75  70  84 CALM      29.97S
ELLINGTON FLD  PTCLDY    81  68  65 CALM      29.96S
SUGAR LAND     CLEAR     82  67  60 E3        29.96S
*HOUSTON EXEC  NOT AVBL
*CLEVELAND MUN PTCLDY    73  72  98 CALM      29.98S
*WHARTON         N/A     75  66  73 CALM      29.97S
*COLUMBUS      FAIR      78  70  76 CALM      29.99S
*EAGLE LAKE    NOT AVBL
$$

TXZ214>216-236>238-180600-
THE UPPER TEXAS COAST

CITY           SKY/WX    TMP DP  RH WIND       PRES   REMARKS
*ORANGE        CLEAR     73  68  86 CALM      29.98F
PORT ARTHUR    CLEAR     76  67  73 E6        29.95F
GALVESTON      CLEAR     85  64  49 E8        29.95F
ANGLETON       CLEAR     73  68  84 CALM      29.95F
*BAY CITY      CLEAR     74  68  82 E5        29.95S
PALACIOS       CLEAR     78  70  76 E5        29.95R
$$

TXZ229>234-239>247-180600-
TEXAS COASTAL BEND AND RIO GRANDE PLAINS

CITY           SKY/WX    TMP DP  RH WIND       PRES   REMARKS
VICTORIA       CLOUDY    79  75  87 NE5       29.96S
*BEEVILLE      CLEAR     76  76 100 E3        29.96R
ROCKPORT       PTCLDY    84  70  62 SE10      29.94R
*PORT ARANSAS  CLEAR     84  71  65 E13       29.95S
*PORT LAVACA   MOCLDY    84  68  58 E9        29.95S
*INGLESIDE     PTCLDY    84  69  59 SE9       29.93S
CORPUS CHRISTI MOCLDY    82  68  62 E6        29.94S
CORPUS NAS     PTCLDY    85  70  60 E13       29.94R
*ROBSTOWN      PTCLDY    82  72  71 E5        29.95S
ALICE          NOT AVBL
KINGSVILLE NAS PTCLDY    77  73  87 N3        29.95R
COTULLA        PTCLDY    82  68  62 SE5       29.96S
LAREDO         NOT AVBL
$$

TXZ248>255-180600-
DEEP SOUTH TEXAS

CITY           SKY/WX    TMP DP  RH WIND       PRES   REMARKS
BROWNSVILLE    NOT AVBL
PORT ISABEL    MOCLDY    79  72  79 NW5       29.94R
HARLINGEN      NOT AVBL
*HEBBRONVILLE  PTCLDY    76  62  60 S3        29.99S
MCALLEN        NOT AVBL
*WESLACO       MOCLDY    80  73  77 CALM      29.94S
FALFURRIAS     PTCLDY    73  70  93 CALM      29.95S
EDINBURG       PTCLDY    78  74  86 CALM      29.95S
*ZAPATA        PTCLDY    82  69  63 CALM      29.98S
$$

TXZ213>215-236>238-242>244-246-247-251-254-255-180600-
CMAN STATIONS

STATION/POSITION TIME  TEMP    WIND        PRES    WAVE
                       AIR SEA DIR/SP/G            HT/PER
                 (UTC) (F)     (DEG/KT/KT) (MB)    (FT/S)
NORTH JETTY/GLS  0430   85 86  100/ 17/ 19 1013.2
EAGLE POINT      0430   85 87   90/ 14/ 16 1014.0
MORGANS POINT    0430   83 85  110/  5/  7 1014.4
MISSION/ARANSAS  0400   86      90/ 14     1014.0
PORT O`CONNOR    0424   85 89   90/ 15/ 17 1013.5
PORT ARANSAS     0400   85 86  100/ 16/ 18   N/A
MALAQUITE BEACH  0424   85      60/ 15/ 18   N/A
BAFFIN BAY       0424   85 89   60/ 13/ 16 1013.3
PORT ISABEL      0424   84 85   30/  4/  9 1014.7
$$



USA.gov is the U.S. government's official web portal to all federal, state and local government web resources and services.